Weather History for KGTF - November, 2011

Change the Weather History Date:

Sunday, November 13, 2011

  Actual Average Record
Temperature  
Mean Temperature 38 °F 34 °F  
Max Temperature 48 °F 44 °F 69 °F (1990)
Min Temperature 27 °F 24 °F -23 °F (1955)
Degree Days  
Heating Degree Days 27 31  
Month to date heating degree days 369 366  
Since 1 July heating degree days 1065 1386  
Cooling Degree Days 0 0  
Month to date cooling degree days 0 0  
Year to date cooling degree days 365 298  
Moisture  
Dew Point 20 °F    
Average Humidity 51    
Maximum Humidity 69    
Minimum Humidity 33    
Precipitation  
Precipitation 0.00 in 0.02 in 0.21 in (1930)
Month to date precipitation 0.10 0.25  
Year to date precipitation 15.95 13.86  
Snow  
Snow 0.00 in 0.30 in 3.00 in (1909)
Month to date snowfall 1.6 3.1  
Since 1 July snowfall 1.7 8.7  
Since 1 September snowfall 1.7 8.4  
Snow Depth 0.00 in    
Sea Level Pressure  
Sea Level Pressure 29.41 in    
Wind  
Wind Speed 20 mph (WSW)    
Max Wind Speed 37 mph    
Max Gust Speed 46 mph    
Visibility 10 miles    
Events      
T = Trace of Precipitation, MM = Missing Value Source: NWS Daily Summary

Daily Weather History Graph

Daily Weather History Graph

Search for Another Location

Airport or City:

Trip Planner

Search our weather history database for the weather conditions in past years. The results will help you decide how hot, cold, wet, or windy it might be!

Date:

Astronomy

Nov. 13, 2011 Rise Set
Actual Time 7:27 AM MST 4:51 PM MST
Civil Twilight 6:53 AM MST 5:25 PM MST
Nautical Twilight 6:16 AM MST 6:02 PM MST
Astronomical Twilight 5:40 AM MST 6:38 PM MST
Moon 6:56 PM MST (11/13) 10:10 AM MST (11/13)
Length of Visible Light 10h 31m
Length of Day
9h 24m
Waning Gibbous, 92% of the Moon is Illuminated
Nov 13
Waning Gibbous
Nov 18
Last Quarter
Nov 24
New
Dec 2
First Quarter
Dec 10
Full

Hourly Weather History & Observations

Time (MST) Temp. Windchill Dew Point Humidity Pressure Visibility Wind Dir Wind Speed Gust Speed Precip Events Conditions
12:53 AM 36.0 °F 24.7 °F 19.9 °F 52% 29.36 in 10.0 mi SW 21.9 mph 31.1 mph N/A   Overcast
1:53 AM 35.1 °F 23.5 °F 19.0 °F 52% 29.35 in 10.0 mi SW 21.9 mph 31.1 mph N/A   Clear
2:53 AM 35.1 °F 22.7 °F 19.9 °F 54% 29.37 in 10.0 mi SW 25.3 mph 39.1 mph N/A   Clear
3:53 AM 36.0 °F 23.0 °F 21.0 °F 55% 29.36 in 10.0 mi SW 29.9 mph 40.3 mph N/A   Mostly Cloudy
4:53 AM 37.0 °F 25.9 °F 21.0 °F 52% 29.36 in 10.0 mi SW 23.0 mph 33.4 mph N/A   Overcast
5:53 AM 37.0 °F 25.4 °F 21.9 °F 54% 29.34 in 10.0 mi SW 25.3 mph 35.7 mph N/A   Overcast
6:53 AM 36.0 °F 24.7 °F 23.0 °F 59% 29.35 in 10.0 mi SW 21.9 mph 40.3 mph N/A   Overcast
7:53 AM 35.1 °F 24.5 °F 24.1 °F 64% 29.35 in 10.0 mi SW 18.4 mph 25.3 mph N/A   Clear
8:53 AM 37.9 °F 26.8 °F 25.0 °F 60% 29.34 in 10.0 mi SW 24.2 mph 32.2 mph N/A   Clear
9:53 AM 42.1 °F 32.6 °F 24.1 °F 49% 29.32 in 10.0 mi SW 23.0 mph 32.2 mph N/A   Clear
10:53 AM 45.0 °F 36.0 °F 21.0 °F 39% 29.32 in 10.0 mi WSW 25.3 mph 32.2 mph N/A   Partly Cloudy
11:53 AM 44.1 °F 34.0 °F 18.0 °F 35% 29.32 in 10.0 mi WSW 29.9 mph 38.0 mph N/A   Overcast
12:53 PM 45.0 °F 36.6 °F 17.1 °F 33% 29.34 in 10.0 mi West 21.9 mph 32.2 mph N/A   Overcast
1:53 PM 43.0 °F 34.0 °F 18.0 °F 37% 29.37 in 10.0 mi West 21.9 mph 29.9 mph N/A   Scattered Clouds
2:53 PM 42.1 °F 31.9 °F 18.0 °F 38% 29.39 in 10.0 mi West 26.5 mph 36.8 mph N/A   Overcast
3:39 PM 39.2 °F 32.0 °F 19.4 °F 45% 29.37 in 10.0 mi NW 11.5 mph - N/A   Overcast
3:53 PM 39.0 °F 31.8 °F 19.9 °F 46% 29.44 in 10.0 mi WNW 11.5 mph - N/A   Mostly Cloudy
4:53 PM 36.0 °F 27.1 °F 17.1 °F 46% 29.47 in 10.0 mi WNW 13.8 mph - N/A   Partly Cloudy
5:53 PM 30.0 °F 20.5 °F 16.0 °F 56% 29.50 in 10.0 mi WSW 11.5 mph - N/A   Clear
6:53 PM 28.0 °F 18.6 °F 15.1 °F 58% 29.53 in 10.0 mi SW 10.4 mph - N/A   Partly Cloudy
7:53 PM 30.0 °F 20.5 °F 19.0 °F 64% 29.53 in 10.0 mi SW 11.5 mph - N/A   Clear
8:53 PM 27.0 °F 17.3 °F 18.0 °F 69% 29.54 in 10.0 mi SW 10.4 mph - N/A   Clear
9:53 PM 28.0 °F 19.3 °F 19.9 °F 72% 29.53 in 10.0 mi WSW 9.2 mph - N/A   Scattered Clouds
10:53 PM 35.1 °F 23.8 °F 23.0 °F 61% 29.50 in 10.0 mi West 20.7 mph 27.6 mph N/A   Overcast
11:53 PM 32.0 °F 24.2 °F 24.1 °F 73% 29.52 in 10.0 mi WSW 9.2 mph - N/A   Overcast